Content
SEND FEEDBACK

Daily
Averages
Monthly
Summary
United States of America

WAHWEAP, ARIZONA


Home > North America > United States > Arizona
Elevation: 3703 feet     Latitude: 36 59N     Longitude: 111 29W

WEATHER
 
SELECT A DAY
Number of Records: 194,562;   Date Range: 1/1/95 - 7/7/14
 
SHARE

PRINT THIS DATA

[ ← Previous Day ]
WEATHER ALMANAC - FEBRUARY 12, 2013
[ Next Day → ]
[ °C ]   °F
Weather ElementAverageHighLow
Temperature32.2 °F41 °F (2:53 pm)24.1 °F (6:53 am)
Dewpoint13.1 °F19 °F (6:53 pm)7 °F (10:53 am)
Humidity46.5 %61 % (9:53 pm)31 % (11:53 am)
Barometer30.24 in30.32 in (9:53 am)30.18 in (1:53 am)
Wind Speed2.6 mph9.2 mph (2:53 pm)
Weather ElementAverage
Visibility9.3 mi
Wind DirectionE (90 °)

Weather ElementTotal
Precipitation---
Heating Degree Days32.5 (Base 65)
Averaged from 25 records on February 12, 2013
WEATHER CONDITIONS BREAKOUT
WIND DIRECTION BREAKOUT
WEATHER BY HOUR - FEBRUARY 12, 2013
[ °C ]   °F
Local TimeTemperatureDewpointHumidityBarometerVisibilityWind DirectionWind SpeedGust SpeedPrecipitationEventsConditions
1:53 AM30.0 °F12.9 °F49 %30.18 in10.0 miWNW (300°)3.5 mphClear
2:53 AM28.9 °F12.0 °F49 %30.19 in10.0 miCalmClear
3:53 AM27.0 °F12.0 °F53 %30.19 in9.0 miWest (280°)3.5 mphClear
4:53 AM27.0 °F10.0 °F49 %30.21 in10.0 miCalmClear
5:14 AM26.6 °F10.4 °F51 %30.19 in2.0 miCalmHaze
5:22 AM26.6 °F10.4 °F51 %30.19 in9.0 miCalmClear
5:53 AM27.0 °F9.0 °F47 %30.24 in10.0 miCalmClear
6:53 AM24.1 °F12.0 °F60 %30.27 in9.0 miCalmClear
7:53 AM25.0 °F12.9 °F60 %30.29 in10.0 miCalmClear
8:53 AM28.9 °F12.0 °F49 %30.31 in10.0 miENE (60°)3.5 mphClear
9:53 AM32.0 °F8.1 °F37 %30.32 in10.0 miNorth (350°)3.5 mphClear
10:53 AM33.1 °F7.0 °F34 %30.31 in10.0 miCalmClear
11:53 AM36.0 °F8.1 °F31 %30.29 in10.0 miCalmClear
12:53 PM37.9 °F10.9 °F33 %30.25 in10.0 miSSE (160°)4.6 mphClear
1:53 PM37.9 °F10.0 °F32 %30.24 in10.0 miVariable4.6 mphClear
2:53 PM41.0 °F14.0 °F33 %30.22 in10.0 miENE (60°)9.2 mphClear
3:53 PM41.0 °F15.1 °F35 %30.22 in10.0 miEast (100°)5.8 mphClear
4:53 PM41.0 °F14.0 °F33 %30.22 in10.0 miEast (90°)5.8 mphClear
5:53 PM37.9 °F16.0 °F41 %30.23 in10.0 miSSE (150°)3.5 mphClear
6:53 PM35.1 °F19.0 °F52 %30.26 in10.0 miESE (120°)3.5 mphClear
7:53 PM33.1 °F19.0 °F56 %30.27 in10.0 miSE (140°)5.8 mphClear
8:53 PM32.0 °F18.0 °F56 %30.26 in10.0 miCalmClear
9:53 PM30.9 °F19.0 °F61 %30.27 in4.0 miCalmHaze
10:53 PM33.1 °F18.0 °F54 %30.26 in10.0 miSouth (190°)4.6 mphClear
11:53 PM30.9 °F17.1 °F57 %30.24 in10.0 miWSW (250°)3.5 mphClear
Hourly data recorded from KPGA, located miles away from Wahweap, Arizona







STORIES FROM OUR PARTNERS